Chillicothe, MO

9:29 PM CDT on May 27, 2018 (GMT -0500)
Chillicothe

Weather History for KCDJ - July, 2013

Change the Weather History Date:

Wednesday, July 10, 2013

  Actual Average (KIRK) Record (KIRK)
Temperature  
Mean Temperature 81 °F -  
Max Temperature 91 °F 87 °F 103 °F (1936)
Min Temperature 71 °F 67 °F 51 °F (1956)
Cooling Degree Days 16    
Growing Degree Days 31 (Base 50)    
Moisture  
Dew Point 65 °F    
Average Humidity 55    
Maximum Humidity 74    
Minimum Humidity 35    
Precipitation  
Precipitation 0.00 in - - ()
Sea Level Pressure  
Sea Level Pressure 29.94 in    
Wind  
Wind Speed 6 mph (North)    
Max Wind Speed 10 mph    
Max Gust Speed 22 mph    
Averages and records for this station are not official NWS values.
T = Trace of Precipitation, MM = Missing Value Source: NWS Daily Summary

Daily Weather History Graph

Daily Weather History Graph

Search for Another Location

Airport or City:

Astronomy

Jul. 10, 2013 Rise Set
Actual Time 5:55 AM CDT 8:43 PM CDT
Civil Twilight 5:23 AM CDT 9:15 PM CDT
Nautical Twilight 4:42 AM CDT 9:56 PM CDT
Astronomical Twilight 3:56 AM CDT 10:42 PM CDT
Moon 8:16 AM CDT (7/10) 9:54 PM CDT (7/10)
Length of Visible Light 15h 52m
Length of Day
14h 48m
Waxing Crescent, 5% of the Moon is Illuminated
Jul 10
Waxing Crescent
Jul 15
First Quarter
Jul 22
Full
Jul 29
Last Quarter
Aug 6
New

Hourly Weather History & Observations

Time (CDT) Temp. Heat Index Dew Point Humidity Pressure Visibility Wind Dir Wind Speed Gust Speed Precip Events Conditions
12:52 AM 84.9 °F 90.7 °F 72.0 °F 65% 29.86 in - South 6.9 mph - N/A   Unknown
1:52 AM 84.0 °F 89.6 °F 72.0 °F 67% 29.86 in - SSW 5.8 mph - N/A   Unknown
2:52 AM 82.9 °F 88.0 °F 72.0 °F 69% 29.84 in - SSW 3.5 mph - N/A   Unknown
3:52 AM 82.9 °F 87.5 °F 71.1 °F 67% 29.84 in - WNW 5.8 mph - N/A   Unknown
4:52 AM 84.9 °F 91.4 °F 73.0 °F 67% 29.82 in - North 9.2 mph 19.6 mph N/A   Unknown
5:52 AM 81.0 °F 85.2 °F 72.0 °F 74% 29.86 in - North 9.2 mph 21.9 mph N/A   Unknown
6:52 AM 81.0 °F 84.1 °F 69.1 °F 67% 29.91 in - Variable 4.6 mph - N/A   Unknown
7:52 AM 81.0 °F 84.1 °F 69.1 °F 67% 29.95 in - Calm Calm - N/A   Unknown
8:52 AM 81.0 °F 83.3 °F 66.9 °F 62% 29.95 in - NNE 8.1 mph 17.3 mph N/A   Unknown
9:52 AM 82.9 °F 84.4 °F 64.0 °F 53% 29.99 in - NNE 8.1 mph 16.1 mph N/A   Unknown
10:52 AM 84.9 °F 85.0 °F 61.0 °F 44% 30.01 in - NNE 10.4 mph - N/A   Unknown
11:52 AM 87.1 °F 86.5 °F 59.0 °F 39% 30.01 in - North 5.8 mph - N/A   Unknown
12:52 PM 88.0 °F 87.6 °F 60.1 °F 39% 30.00 in - North 8.1 mph - N/A   Unknown
1:52 PM 89.1 °F 89.0 °F 61.0 °F 39% 30.00 in - Variable 3.5 mph - N/A   Unknown
2:52 PM 89.1 °F 89.0 °F 61.0 °F 39% 29.99 in - Variable 4.6 mph - N/A   Unknown
3:52 PM 91.0 °F 90.9 °F 61.0 °F 36% 29.98 in - North 6.9 mph - N/A   Unknown
4:52 PM 90.0 °F 89.1 °F 59.0 °F 35% 29.96 in - North 5.8 mph - N/A   Unknown
5:52 PM 89.1 °F 88.8 °F 60.1 °F 38% 29.95 in - Variable 4.6 mph - N/A   Unknown
6:52 PM 87.1 °F 86.5 °F 59.0 °F 39% 29.94 in - North 6.9 mph - N/A   Unknown
7:52 PM 82.9 °F 83.3 °F 61.0 °F 47% 29.95 in - North 4.6 mph - N/A   Unknown
8:52 PM 75.9 °F - 63.0 °F 64% 29.96 in - Calm Calm - N/A   Unknown
9:52 PM 73.0 °F - 63.0 °F 71% 29.99 in - Calm Calm - N/A   Unknown
10:52 PM 71.1 °F - 62.1 °F 73% 30.01 in - Calm Calm - N/A   Unknown
11:52 PM 73.0 °F - 59.0 °F 61% 30.02 in - NE 3.5 mph - N/A   Unknown